Location: Celina Division
(33.3022°N, 96.7580°W)
Time: 19:36:11
(UTC+00:00)

H-2A R/B (2) - Pass Details

Date: 03 July 2022
Orbit: 428 x 34396 km, 28.9° (Epoch: 07 August)

Event Time Altitude Azimuth Distance (km) Brightness Sun altitude
Exits shadow 06:57:10 10° 168° (SSE) 19,335 8.6 -33.4°
Maximum altitude 15:16:13 65° 161° (SSE) 8,795 8.3 46.1°
Drops below altitude 10° 15:39:30 10° 85° (E) 5,489 7.2 51.0°
Sets 15:41:44 0° 82° (E) 5,784 7.1 51.5°
